Regional Weather Roundup
Issued by NWS

Home | Current Version | Previous Version | Graphics & Text | Print | Product List | Glossary On
Versions: 1 2 3 4 5 6 7 8 9 10 11 12 13 14 15 16 17 18 19 20 21 22 23 24 25 26 27 28 29 30 31 32 33 34 35 36 37 38 39 40 41 42 43 44 45 46 47 48 49 50
702
ASUS43 KLOT 011308
RWRIL

ILLINOIS REGIONAL WEATHER ROUNDUP
NATIONAL WEATHER SERVICE CHICAGO/ROMEOVILLE IL
800 AM CDT SAT OCT 01 2016

NOTE: "FAIR" INDICATES FEW OR NO CLOUDS BELOW 12,000 FEET WITH NO
SIGNIFICANT WEATHER AND/OR OBSTRUCTIONS TO VISIBILITY.

* THESE STATIONS ARE NOT UNDER NWS QUALITY CONTROL. THEY ALSO MAY NOT
  REPORT WEATHER SUCH AS PRECIPITATION OR FOG.

ILZ001-002-007-009-015-016-024-011400-
NORTHWEST ILLINOIS

CITY           SKY/WX    TMP DP  RH WIND       PRES   REMARKS
MOLINE         CLOUDY    61  58  90 NW6       30.05S
STERLING*      PTSUNNY   60  59  96 N5        30.05S
SAVANNA*       CLOUDY    60  59  96 N5        30.05S
$$

ILZ003-004-008-010-011-017-018-011400-
NORTH CENTRAL ILLINOIS

CITY           SKY/WX    TMP DP  RH WIND       PRES   REMARKS
ROCKFORD       MOSUNNY   60  57  89 N6        30.07S
FREEPORT*      CLOUDY    59  58  97 NE5       30.08R
ROCHELLE*      FOG       57  57 100 NE6       30.05S VSB 1/4
DE KALB*       MOSUNNY   55  54  99 NW3       30.05S FOG
$$

ILZ005-006-012>014-019>023-011400-
NORTHEAST ILLINOIS

CITY           SKY/WX    TMP DP  RH WIND       PRES   REMARKS
CHICAGO-OHARE  CLOUDY    60  56  86 N8        30.01S
CHICAGO-MIDWAY PTSUNNY   61  56  83 NW8       30.00F
AURORA         MOSUNNY   54  53  97 NW5       30.03S
LANSING*       HVY RAIN  58  58 100 N3G16     30.01S
JOLIET*        CLOUDY    59  58  98 N6        30.02S FOG
WAUKEGAN       CLOUDY    60  59  96 N5        30.03R
DUPAGE AIRPORT MOSUNNY   56  54  93 N5        30.02S FOG
KANKAKEE*      CLOUDY    58  57  97 CALM      30.02S FOG
WHEELING       CLOUDY    60  57  89 N8        30.03S
MORRIS*        CLOUDY    55  55  97 CALM      30.01S FOG
ROMEOVILLE*    CLOUDY    56  56 100 NW6       30.02S FOG
NORTHERLY ISL    N/A     61  57  87 N12         N/A
$$

LMZ740>746-011400-
SOUTHERN LAKE MICHIGAN

STATION/POSITION SKY/WX   TEMP    WIND        PRES    VSBY  WAVE
                          AIR SEA DIR/SP/G                  HT/PER
                          (F)     (DEG/KT/KT) (MB)    (MI)  (FT/S)
SOUTHERN BUOY              61 67   60/ 16/ 19 1016.5R         3/ 4
WILMETTE HARBOR            61 59   30/ 10/ 16   N/A           3/ 6
HARRISON CRIB              61     340/ 13/ 14   N/A
BURNHAM HARBOR             60     350/  9/ 10   N/A
CALUMET HARBOR             60     320/  4/  7 1015.6S
BURNS HARBOR               61      50/ 14/ 18 1016.3S
MICHIGAN CITY              59      20/ 11/ 12   N/A
MICHIGAN CITY 6N           60 64   50/ 14/ 17   N/A           4/ 6
ST. JOSEPH                 53 51   10/  6/  8 1016.6          3/ 6
$$

ILZ025>027-034>036-040-047-049-050-058-095>099-011400-
WEST-CENTRAL ILLINOIS

CITY           SKY/WX    TMP DP  RH WIND       PRES   REMARKS
QUINCY         CLOUDY    61  59  93 N7        30.07R
GALESBURG*     DRIZZLE   59  58  97 CALM      30.05R
MACOMB*        LGT RAIN  60  59  96 NW6       30.08R
JACKSONVILLE*  CLOUDY    61  59  94 NW5       30.05S
PITTSFIELD*    CLOUDY    61  60  98 NW5       30.07S FOG
$$

ILZ028>032-037-038-041>044-048-051>054-059>061-011400-
CENTRAL ILLINOIS

CITY           SKY/WX    TMP DP  RH WIND       PRES   REMARKS
PONTIAC        FOG       54  54 100 CALM      30.03S VSB<1/4
BLOOMINGTON    CLOUDY    59  57  93 N7        30.04R
DECATUR        CLOUDY    61  58  90 N3        30.03R
PEORIA         CLOUDY    61  61 100 N3        30.04R FOG
LACON*         CLOUDY    61  59  94 CALM      30.03S FOG
LINCOLN*       CLOUDY    61  60  99 N3        30.03S FOG
SPRINGFIELD    CLOUDY    62  60  93 N3        30.04R FOG
TAYLORVILLE    CLOUDY    60  60 100 NW3       30.03R FOG
$$

ILZ033-039-045-046-055>057-062-063-011400-
EAST-CENTRAL ILLINOIS

CITY           SKY/WX    TMP DP  RH WIND       PRES   REMARKS
CHAMPAIGN      CLOUDY    60  58  92 N3        30.02R FOG
RANTOUL*       CLOUDY    60  59  96 NE6       30.02R FOG
MATTOON        CLOUDY    61  58  90 NW5       30.01R
PARIS*         FOG       56  56 100 CALM      30.02S VSB 1/4
$$

ILZ079-100>102-011400-
SOUTHWEST ILLINOIS

CITY           SKY/WX    TMP DP  RH WIND       PRES   REMARKS
ALTON          DRIZZLE   61  59  94 W8        30.05S
BELLEVILLE     PTSUNNY   62  62 100 NW6       30.03S
CAHOKIA*       CLOUDY    64  59  83 N7        30.05R
SPARTA*        CLOUDY    61  60  97 NW7       30.05R
$$

ILZ064>066-069>071-074>076-080>082-084>086-088>090-092>094-011400-
SOUTH-CENTRAL ILLINOIS

CITY           SKY/WX    TMP DP  RH WIND       PRES   REMARKS
CARBONDALE     CLOUDY    61  61 100 W6        30.04R
CAIRO*         CLOUDY    59  58  98 W8        30.07R
EFFINGHAM*     DRIZZLE   60  60 100 CALM      30.03R
MARION         RAIN      63  63 100 W6        30.04R FOG
MT. VERNON     CLOUDY    61  55  82 CALM      30.04R
CENTRALIA*     CLOUDY    61  61  99 W5        30.03R
SALEM*         CLOUDY    62  60  94 CALM      30.03R FOG
METROPOLIS*    CLOUDY    62  60  94 SW6       30.05R
$$

ILZ067-068-072-073-078-083-087-091-011400-
SOUTHEAST ILLINOIS

CITY           SKY/WX    TMP DP  RH WIND       PRES   REMARKS
LAWRENCEVILLE  FOG       57  56  96 SE7       30.02R VSB 1/4
FLORA*         RAIN      62  61  97 CALM      30.02S
FAIRFIELD*       N/A     61  61 100 CALM      30.02R
HARRISBURG*    HVY RAIN  62  62 100 W5        30.03R
ROBINSON*      LGT RAIN  56  56 100 CALM      30.03S VSB<1/4
CARMI*         CLOUDY    59  59 100 CALM      30.02R FOG
$$

ABBREVIATIONS USED IN REMARKS
   TC - TEMPERATURE IN CELSIUS
  WCI - WIND CHILL INDEX
   HX - HEAT INDEX
  VSB - VISIBILITY
$$





USA.gov is the U.S. government's official web portal to all federal, state and local government web resources and services.